sat.trackr.live / text

‹ back to catalog

STARLINK-2481

NORAD 48138 · 2021-027AY

PAYLOAD ACTIVE UNKNOWN

§ Identity

Operator
Country
US
Launch date
2021-04-07
Launch site
AFETR
Launch vehicle
Mass (kg)
RCS (m²)

Purposes: comms

External: N2YO · Heavens-Above · Gunter

§ Orbital elements

Epoch: 2026-09-20T04:47:44.593152Z

Period
94.01 min
Inclination
53.1614°
Eccentricity
0.0001154
Mean motion
15.31697286 rev/d
Perigee alt
470.0 km
Apogee alt
471.5 km
Semi-major
6,848.9 km
B*
7.1377e-5
RAAN
342.5463°
Arg perigee
80.8101°
Mean anomaly
279.3031°
Rev number
30,228

§ Raw data

STARLINK-24811 48138U 21027AY  26263.19982168  .00001850  00000+0  71377-4 0  99912 48138  53.1614 342.5463 0001154  80.8101 279.3031 15.31697286302280

JSON: /api/v1/satellites/48138 · /tle

For live sub-satellite position, see the globe view (requires WebGL).

§ Visibility from observer

Set your observer location to see the next 7 days of passes ≥ 10°. The values pass through the URL so the page stays shareable.

No JS? Fill the form by hand. The geolocation button needs JavaScript.